Location: New Plymouth
(39.0670°S, 174.0830°E)
Time: 08:50:27
(UTC+13:00)

Cosmos 2219 Rocket - Pass Details

Date: 24 January 2019
Orbit: 829 x 845 km, 71.0° (Epoch: 16 October)

Event Time Altitude Azimuth Distance (km) Brightness Sun altitude
Exits shadow 23:29:30 56° 75° (ENE) 1,005 2.3 -24.7°
Drops below altitude 10° 23:35:01 10° 149° (SSE) 2,495 4.9 -25.2°
Sets 23:37:31 0° 152° (SSE) 3,439 5.8 -25.5°
